Visibility
15.0 15.0 15.0 15.0 15.0 15.0 15.0 15.0 15.0 15.0 15.0 15.0 15.0 15.0 15.0 15.0 15.0 15.0 15.0 15.0 15.0 15.0 15.0 15.0 15.0 15.0 15.0 15.0 15.0 15.0 15.0 15.0 15.0 15.0 15.0 15.0 15.0 15.0 15.0 15.0 15.0 15.0 15.0
15.0 15.0 15.0 15.0 15.0 15.0 15.0 15.0 15.0 15.0 15.0 15.0 15.0 15.0 15.0 15.0 15.0 15.0 15.0 15.0 15.0 15.0 15.0 15.0 15.0 15.0 15.0 15.0 15.0 15.0 15.0 15.0 15.0 15.0 15.0 15.0 15.0 15.0 15.0 15.0 15.0 15.0 15.0
15.0 15.0 15.0 15.0 15.0 15.0 15.0 15.0 15.0 15.0 15.0 15.0 15.0 15.0 15.0 15.0 15.0 15.0 15.0 15.0 15.0 15.0 15.0 15.0 15.0 15.0 15.0 15.0 15.0 15.0 15.0 15.0 15.0 15.0 15.0 15.0 15.0 15.0 15.0 15.0 15.0 10.8 15.0
15.0 15.0 15.0 15.0 15.0 15.0 15.0 15.0 15.0 15.0 15.0 15.0 15.0 15.0 15.0 15.0 15.0 15.0 15.0 15.0 15.0 15.0 15.0 15.0 15.0 15.0 15.0 15.0 15.0 15.0 15.0 15.0 15.0 15.0 12.5 13.8 12.8 15.0 15.0 4.4 1.2 15.0 9.1
15.0 15.0 15.0 15.0 15.0 15.0 15.0 15.0 15.0 15.0 15.0 15.0 15.0 15.0 15.0 15.0 15.0 15.0 15.0 15.0 15.0 15.0 15.0 15.0 13.6 13.8 15.0 12.3 15.0 15.0 15.0 15.0 7.3 15.0 4.6 14.0 14.9 0.2 4.1 15.0 15.0 15.0 14.8
15.0 15.0 15.0 15.0 15.0 15.0 15.0 15.0 15.0 15.0 15.0 15.0 15.0 15.0 15.0 15.0 15.0 15.0 11.0 14.9 15.0 15.0 15.0 15.0 15.0 7.9 15.0 8.0 6.8 5.0 10.3 14.8 14.8 15.0 15.0 15.0 14.0 14.9 15.0 15.0 2.7 11.3 14.5
15.0 15.0 15.0 15.0 15.0 15.0 15.0 15.0 15.0 15.0 15.0 15.0 15.0 15.0 15.0 15.0 15.0 15.0 11.7 9.3 9.5 14.3 11.7 10.6 13.7 15.0 10.9 15.0 15.0 15.0 11.2 11.7 7.2 2.1 14.4 13.6 13.3 13.1 15.0 14.5 15.0 7.0 11.0
15.0 15.0 15.0 15.0 15.0 15.0 15.0 15.0 15.0 15.0 15.0 15.0 15.0 15.0 15.0 15.0 15.0 13.0 10.9 11.0 12.2 15.0 11.2 15.0 15.0 15.0 15.0 15.0 15.0 15.0 15.0 15.0 15.0 9.7 7.2 15.0 15.0 15.0 14.3 14.9 15.0 11.9 15.0
15.0 15.0 15.0 15.0 15.0 15.0 15.0 15.0 15.0 15.0 15.0 15.0 15.0 15.0 15.0 15.0 15.0 12.0 12.4 12.4 15.0 15.0 12.8 15.0 7.6 15.0 15.0 15.0 15.0 15.0 15.0 15.0 10.9 14.9 3.4 11.3 7.7 4.3 13.9 14.5 15.0 6.5 15.0
15.0 15.0 15.0 15.0 15.0 15.0 15.0 15.0 15.0 15.0 14.3 0.4 0.1 0.2 0.5 1.0 13.8 15.0 12.3 7.0 6.5 15.0 15.0 15.0 15.0 14.8 15.0 14.3 12.6 10.3 15.0 12.3 13.7 15.0 5.1 7.0 10.4 5.2 12.3 15.0 12.0 15.0 15.0
15.0 15.0 15.0 15.0 15.0 15.0 15.0 15.0 15.0 0.6 0.0 0.0 0.1 8.4 15.0 15.0 15.0 5.8 8.9 6.4 5.1 10.3 15.0 10.7 15.0 15.0 13.9 12.6 7.3 15.0 15.0 11.5 15.0 15.0 15.0 14.7 15.0 14.0 8.0 15.0 14.6 15.0 15.0
15.0 15.0 15.0 15.0 15.0 15.0 15.0 15.0 0.1 0.0 0.0 0.0 0.3 15.0 15.0 15.0 15.0 15.0 15.0 15.0 8.8 3.8 12.9 15.0 15.0 15.0 15.0 15.0 8.3 3.3 8.8 13.5 15.0 15.0 15.0 15.0 15.0 15.0 15.0 14.6 15.0 15.0 15.0
15.0 15.0 15.0 15.0 15.0 15.0 15.0 2.7 0.0 0.0 0.0 0.0 15.0 15.0 15.0 15.0 15.0 12.9 7.0 8.8 4.1 5.3 15.0 15.0 15.0 15.0 15.0 8.5 8.5 8.7 4.6 4.9 15.0 15.0 15.0 15.0 15.0 15.0 15.0 15.0 15.0 14.3 15.0
15.0 15.0 15.0 15.0 14.9 15.0 15.0 0.1 0.0 0.0 0.0 0.2 0.1 0.1 0.1 12.7 15.0 14.1 15.0 15.0 12.6 12.2 12.0 15.0 15.0 14.9 13.9 10.2 15.0 15.0 9.5 5.6 15.0 15.0 15.0 15.0 15.0 15.0 15.0 15.0 15.0 0.5 15.0
15.0 15.0 15.0 15.0 15.0 14.8 15.0 0.1 0.1 3.4 6.6 4.4 2.0 4.2 0.1 0.1 0.9 11.3 11.4 15.0 15.0 15.0 15.0 15.0 12.7 15.0 15.0 15.0 15.0 2.5 6.4 4.2 4.2 15.0 15.0 15.0 15.0 15.0 15.0 15.0 15.0 15.0 15.0
15.0 15.0 15.0 15.0 15.0 15.0 0.0 0.0 0.1 12.0 15.0 14.8 15.0 9.2 7.5 6.0 7.1 7.8 14.2 13.1 15.0 15.0 15.0 15.0 15.0 15.0 15.0 15.0 15.0 15.0 6.0 15.0 15.0 15.0 15.0 15.0 15.0 15.0 13.4 9.6 15.0 15.0 15.0
15.0 15.0 15.0 15.0 14.9 0.0 0.0 0.0 0.0 0.1 0.4 1.2 14.8 10.7 6.4 6.4 1.4 0.1 0.1 0.1 9.6 15.0 15.0 15.0 15.0 15.0 15.0 15.0 15.0 15.0 15.0 15.0 15.0 15.0 15.0 15.0 15.0 15.0 15.0 15.0 14.7 15.0 15.0
15.0 15.0 15.0 15.0 0.1 0.0 0.0 0.0 0.0 0.0 0.0 0.0 2.0 6.9 9.1 7.7 9.8 6.9 0.1 0.0 0.0 0.0 0.0 0.0 0.1 12.5 15.0 15.0 15.0 15.0 15.0 15.0 15.0 15.0 15.0 15.0 15.0 15.0 15.0 15.0 14.8 15.0 15.0
15.0 15.0 15.0 15.0 0.1 0.0 0.0 0.0 0.0 0.0 0.0 0.0 0.0 0.1 15.0 15.0 15.0 15.0 14.9 0.0 0.0 0.0 0.0 0.0 0.0 0.0 0.2 15.0 15.0 15.0 15.0 15.0 15.0 15.0 15.0 15.0 15.0 15.0 15.0 15.0 9.2 15.0 15.0
15.0 15.0 9.0 0.1 0.0 0.0 0.0 0.0 0.1 0.0 0.0 0.0 0.0 0.0 12.7 15.0 14.5 14.8 1.9 0.0 0.0 0.0 0.0 0.0 0.0 0.0 0.0 0.0 4.7 15.0 15.0 15.0 15.0 15.0 15.0 15.0 15.0 15.0 15.0 15.0 13.0 15.0 15.0
15.0 15.0 10.4 0.3 0.0 0.0 0.0 0.0 0.0 0.0 0.0 0.0 0.0 0.5 13.2 15.0 15.0 15.0 15.0 0.0 0.0 0.0 0.0 0.0 0.0 0.0 0.0 0.0 0.0 0.1 4.3 15.0 15.0 15.0 15.0 15.0 15.0 15.0 15.0 15.0 15.0 15.0 15.0
15.0 15.0 0.5 0.0 0.0 0.0 0.0 0.0 0.0 0.0 0.0 0.0 0.0 15.0 13.5 15.0 15.0 15.0 15.0 0.1 0.0 0.0 0.0 0.0 0.0 0.0 0.0 0.0 0.0 0.0 0.1 3.5 15.0 15.0 15.0 15.0 15.0 15.0 15.0 15.0 15.0 15.0 15.0
15.0 15.0 5.8 0.0 0.0 0.0 0.0 0.0 0.0 0.0 0.0 0.0 8.6 11.7 15.0 15.0 15.0 11.5 15.0 0.1 0.0 0.0 0.0 0.0 0.0 0.0 0.0 0.0 0.0 0.1 0.1 0.1 11.6 15.0 15.0 15.0 15.0 15.0 15.0 15.0 15.0 15.0 15.0
15.0 15.0 0.2 0.0 0.0 0.0 0.0 0.0 0.0 0.0 0.0 0.1 8.3 15.0 13.6 9.9 11.4 13.4 9.5 12.7 0.0 0.0 0.0 0.0 0.0 0.0 0.0 0.0 0.0 0.0 14.9 15.0 15.0 15.0 15.0 15.0 15.0 15.0 15.0 15.0 15.0 15.0 15.0
15.0 15.0 0.1 0.0 0.0 0.0 0.0 0.0 0.0 0.0 0.0 0.9 9.5 8.8 15.0 1.6 14.3 15.0 15.0 13.0 0.0 0.0 0.0 0.0 0.0 0.0 0.0 0.0 0.1 14.7 15.0 15.0 15.0 15.0 15.0 15.0 15.0 15.0 15.0 15.0 15.0 15.0 9.6
15.0 15.0 0.1 0.0 0.0 0.0 0.0 0.0 0.0 0.0 0.0 0.0 0.1 0.6 0.4 15.0 15.0 15.0 15.0 15.0 0.1 0.0 0.0 0.0 0.0 0.0 0.0 1.3 5.9 6.6 15.0 15.0 15.0 15.0 15.0 15.0 15.0 15.0 15.0 15.0 15.0 8.8 9.4